Warwick, RI

8:23 AM EDT on August 27, 2016 (GMT -0400)
Green State

Weather History for KPVD - May, 2012

Change the Weather History Date:

Saturday, May 5, 2012

  Actual Average Record
Temperature  
Mean Temperature 55 °F 55 °F  
Max Temperature 59 °F 65 °F 91 °F (1949)
Min Temperature 51 °F 45 °F 33 °F (1907)
Degree Days  
Heating Degree Days 10 10  
Month to date heating degree days 64 53  
Since 1 July heating degree days 4461 5403  
Cooling Degree Days 0 0  
Month to date cooling degree days 0 0  
Year to date cooling degree days 8 2  
Growing Degree Days 5 (Base 50)    
Moisture  
Dew Point 51 °F    
Average Humidity 88    
Maximum Humidity 96    
Minimum Humidity 80    
Precipitation  
Precipitation 0.01 in 0.11 in 1.73 in (1922)
Month to date precipitation 0.80 0.57  
Year to date precipitation 10.50 17.09  
Snow  
Snow 0.00 in 0.00 in T in (1917)
Month to date snowfall 0.0 0.0  
Since 1 July snowfall 17.8 33.8  
Snow Depth 0.00 in    
Sea Level Pressure  
Sea Level Pressure 30.00 in    
Wind  
Wind Speed 2 mph (SE)    
Max Wind Speed 7 mph    
Max Gust Speed 12 mph    
Visibility 4 miles    
Events Rain    
T = Trace of Precipitation, MM = Missing Value Source: NWS Daily Summary

Daily Weather History Graph

Daily Weather History Graph

Search for Another Location

Airport or City:

Trip Planner

Search our weather history database for the weather conditions in past years. The results will help you decide how hot, cold, wet, or windy it might be!

Date:

Astronomy

May. 05, 2012 Rise Set
Actual Time 5:36 AM EDT 7:48 PM EDT
Civil Twilight 5:05 AM EDT 8:19 PM EDT
Nautical Twilight 4:28 AM EDT 8:57 PM EDT
Astronomical Twilight 3:46 AM EDT 9:39 PM EDT
Moon 7:38 PM EDT (5/5) 4:57 AM EDT (5/5)
Length of Visible Light 15h 13m
Length of Day
14h 12m
Full, 100% of the Moon is Illuminated
May 5
Full
May 5
Full
May 12
Last Quarter
May 20
New
May 28
First Quarter

Hourly Weather History & Observations

Time (EDT) Temp. Dew Point Humidity Pressure Visibility Wind Dir Wind Speed Gust Speed Precip Events Conditions
12:09 AM 51.8 °F 51.8 °F 100% 29.96 in 2.0 mi Calm Calm - 0.00 in   Overcast
12:51 AM 51.1 °F 50.0 °F 96% 29.95 in 2.0 mi SE 5.8 mph - 0.00 in   Overcast
12:58 AM 51.8 °F 50.0 °F 94% 29.95 in 4.0 mi ESE 3.5 mph - N/A   Overcast
1:18 AM 51.8 °F 50.0 °F 94% 29.95 in 2.0 mi SE 4.6 mph - N/A   Overcast
1:51 AM 51.1 °F 50.0 °F 96% 29.95 in 3.0 mi Calm Calm - N/A   Overcast
2:29 AM 51.8 °F 50.0 °F 94% 29.93 in 2.0 mi South 4.6 mph - N/A   Overcast
2:40 AM 51.8 °F 50.0 °F 94% 29.93 in 3.0 mi SSE 4.6 mph - N/A   Overcast
2:51 AM 51.1 °F 50.0 °F 96% 29.93 in 3.0 mi South 5.8 mph - N/A   Overcast
3:06 AM 51.8 °F 50.0 °F 94% 29.93 in 1.8 mi SE 3.5 mph - N/A   Overcast
3:23 AM 51.8 °F 50.0 °F 94% 29.95 in 2.5 mi Calm Calm - N/A   Overcast
3:47 AM 51.8 °F 50.0 °F 94% 29.95 in 0.8 mi Calm Calm - N/A   Overcast
3:51 AM 51.1 °F 50.0 °F 96% 29.96 in 0.8 mi Calm Calm - N/A   Overcast
3:58 AM 51.8 °F 50.0 °F 94% 29.95 in 1.0 mi Calm Calm - N/A   Overcast
4:51 AM 51.1 °F 50.0 °F 96% 29.96 in 1.0 mi ESE 3.5 mph - N/A   Overcast
4:58 AM 51.8 °F 50.0 °F 94% 29.95 in 2.0 mi SE 3.5 mph - N/A   Overcast
5:25 AM 51.8 °F 50.0 °F 94% 29.96 in 3.0 mi Calm Calm - 0.01 in   Overcast
5:51 AM 51.8 °F 50.0 °F 94% 29.96 in 2.0 mi SE 3.5 mph - N/A Rain Light Rain
6:51 AM 51.1 °F 50.0 °F 96% 29.97 in 4.0 mi South 3.5 mph - 0.00 in   Overcast
7:51 AM 51.1 °F 50.0 °F 96% 29.98 in 4.0 mi Calm Calm - N/A   Overcast
8:51 AM 52.0 °F 50.0 °F 93% 29.99 in 5.0 mi ESE 3.5 mph - N/A   Overcast
9:51 AM 52.0 °F 50.0 °F 93% 30.00 in 5.0 mi Calm Calm - N/A   Overcast
10:51 AM 53.1 °F 50.0 °F 89% 30.01 in 6.0 mi Calm Calm - 0.00 in Rain Light Rain
11:51 AM 54.0 °F 52.0 °F 93% 30.01 in 6.0 mi Calm Calm - 0.00 in   Overcast
12:12 PM 55.4 °F 51.8 °F 88% 30.01 in 6.0 mi Calm Calm - N/A   Overcast
12:51 PM 57.0 °F 52.0 °F 83% 30.01 in 7.0 mi Calm Calm - N/A   Overcast
1:51 PM 57.9 °F 53.1 °F 84% 30.00 in 8.0 mi Calm Calm - N/A   Overcast
2:13 PM 59.0 °F 53.6 °F 82% 30.01 in 10.0 mi SSE 3.5 mph - N/A   Overcast
2:51 PM 57.9 °F 52.0 °F 81% 30.01 in 10.0 mi South 4.6 mph - N/A   Overcast
3:51 PM 57.0 °F 52.0 °F 83% 30.01 in 10.0 mi SSE 4.6 mph - N/A   Overcast
4:51 PM 57.2 °F 51.8 °F 82% 30.00 in 10.0 mi South 3.5 mph - N/A   Overcast
8:37 PM 53.6 °F 50.0 °F 88% 30.04 in 3.0 mi Calm Calm - N/A   Mostly Cloudy
8:51 PM 52.0 °F 50.0 °F 93% 30.05 in 4.0 mi Calm Calm - N/A   Mostly Cloudy
9:20 PM 51.8 °F 48.2 °F 88% 30.05 in 4.0 mi Calm Calm - N/A   Scattered Clouds
9:40 PM 51.8 °F 50.0 °F 94% 30.07 in 3.0 mi Calm Calm - N/A   Mostly Cloudy
9:51 PM 53.1 °F 51.1 °F 93% 30.07 in 3.0 mi Calm Calm - N/A   Mostly Cloudy
10:16 PM 51.8 °F 50.0 °F 94% 30.07 in 3.0 mi Calm Calm - N/A   Mostly Cloudy
10:31 PM 51.8 °F 50.0 °F 94% 30.08 in 3.0 mi Calm Calm - N/A   Overcast
10:46 PM 51.8 °F 50.0 °F 94% 30.08 in 3.0 mi Calm Calm - N/A   Mostly Cloudy
10:51 PM 52.0 °F 50.0 °F 93% 30.08 in 3.0 mi Calm Calm - N/A   Overcast
11:09 PM 53.6 °F 51.8 °F 94% 30.07 in 5.0 mi Calm Calm - N/A   Overcast
11:51 PM 52.0 °F 50.0 °F 93% 30.07 in 9.0 mi ENE 5.8 mph - N/A   Mostly Cloudy